New Delhi, India

3:05 PM IST on July 22, 2017 (GMT +0530)
Indira Gandhi International

Weather History for VIDP - October, 2013

Change the Weather History Date:

Saturday, October 19, 2013

  Actual Average Record
Temperature  
Mean Temperature 79 °F -  
Max Temperature 89 °F 83 °F 98 °F (2000)
Min Temperature 69 °F 60 °F 37 °F (2003)
Cooling Degree Days 14    
Growing Degree Days 29 (Base 50)    
Moisture  
Dew Point 64 °F    
Average Humidity 65    
Maximum Humidity 88    
Minimum Humidity 31    
Precipitation  
Precipitation 0.00 in - - ()
Sea Level Pressure  
Sea Level Pressure 29.89 in    
Wind  
Wind Speed 3 mph ()    
Max Wind Speed 10 mph    
Max Gust Speed -    
Visibility 1.7 miles    
Events      
Averages and records for this station are not official NWS values.
T = Trace of Precipitation, MM = Missing Value Source: Averaged Metar Reports

Daily Weather History Graph

Daily Weather History Graph

Search for Another Location

Airport or City:

Trip Planner

Search our weather history database for the weather conditions in past years. The results will help you decide how hot, cold, wet, or windy it might be!

Date:

Astronomy

Oct. 19, 2013 Rise Set
Actual Time 6:24 AM IST 5:47 PM IST
Civil Twilight 6:00 AM IST 6:11 PM IST
Nautical Twilight 5:33 AM IST 6:39 PM IST
Astronomical Twilight 5:05 AM IST 7:06 PM IST
Moon 6:02 PM IST (10/19) 6:31 AM IST (10/19)
Length of Visible Light 12h 11m
Length of Day
11h 23m
Full, 100% of the Moon is Illuminated
Oct 19
Full
Oct 27
Last Quarter
Nov 3
New
Nov 10
First Quarter
Nov 17
Full

Hourly Weather History & Observations

Time (IST) Temp. Heat Index Dew Point Humidity Pressure Visibility Wind Dir Wind Speed Gust Speed Precip Events Conditions
12:00 AM 75.2 °F - 69.8 °F 83% 29.89 in 0.7 mi WSW 6.9 mph - N/A   Partly Cloudy
12:30 AM 75.2 °F - 69.8 °F 83% 29.89 in 0.7 mi WSW 6.9 mph - N/A   Partly Cloudy
1:30 AM 75.2 °F - 68.0 °F 78% 29.86 in 1.1 mi Calm Calm - N/A   Partly Cloudy
2:00 AM 73.4 °F - 66.2 °F 78% 29.86 in 1.1 mi Calm Calm - N/A   Partly Cloudy
2:30 AM 73.4 °F - 66.2 °F 78% 29.86 in 1.1 mi Calm Calm - N/A   Partly Cloudy
3:00 AM 73.4 °F - 66.2 °F 78% 29.86 in 1.1 mi Calm Calm - N/A   Partly Cloudy
3:30 AM 73.4 °F - 66.2 °F 78% 29.86 in 1.1 mi Calm Calm - N/A   Partly Cloudy
4:00 AM 73.4 °F - 66.2 °F 78% 29.86 in 1.1 mi Calm Calm - N/A   Partly Cloudy
4:30 AM 73.4 °F - 66.2 °F 78% 29.86 in 1.2 mi Calm Calm - N/A   Partly Cloudy
5:00 AM 73.4 °F - 66.2 °F 78% 29.86 in 1.4 mi Calm Calm - N/A   Partly Cloudy
5:30 AM 71.6 °F - 66.2 °F 83% 29.89 in 1.5 mi Calm Calm - N/A   Partly Cloudy
6:00 AM 71.6 °F - 66.2 °F 83% 29.89 in 1.5 mi Calm Calm - N/A   Partly Cloudy
6:30 AM 69.8 °F - 66.2 °F 88% 29.92 in 1.3 mi Calm Calm - N/A   Partly Cloudy
7:00 AM 69.8 °F - 66.2 °F 88% 29.92 in 1.3 mi Calm Calm - N/A   Partly Cloudy
7:30 AM 69.8 °F - 66.2 °F 88% 29.92 in 1.0 mi Calm Calm - N/A   Partly Cloudy
8:00 AM 71.6 °F - 66.2 °F 83% 29.92 in 1.0 mi WSW 3.5 mph - N/A   Mist
8:30 AM 73.4 °F - 66.2 °F 78% 29.95 in 1.0 mi West 4.6 mph - N/A   Mist
9:00 AM 75.2 °F - 68.0 °F 78% 29.95 in 1.0 mi West 3.5 mph - N/A   Mist
10:00 AM 80.6 °F 82.7 °F 66.2 °F 61% 29.95 in 1.4 mi West 5.8 mph - N/A   Smoke
10:30 AM 82.4 °F 84.6 °F 66.2 °F 58% 29.98 in 1.4 mi West 5.8 mph - N/A   Smoke
11:00 AM 82.4 °F 84.6 °F 66.2 °F 58% 29.95 in 1.7 mi West 5.8 mph - N/A   Smoke
12:00 PM 86.0 °F 88.2 °F 66.2 °F 51% 29.95 in 1.9 mi WNW 9.2 mph - N/A   Smoke
12:30 PM 87.8 °F 90.4 °F 66.2 °F 49% 29.92 in 2.2 mi West 9.2 mph - N/A   Smoke
1:00 PM 87.8 °F 90.4 °F 66.2 °F 49% 29.89 in 2.8 mi WNW 8.1 mph - N/A   Smoke
2:00 PM 89.6 °F 88.1 °F 57.2 °F 33% 29.89 in 3.1 mi WNW 8.1 mph - N/A   Haze
2:30 PM 89.6 °F 87.7 °F 55.4 °F 31% 29.86 in 3.1 mi NW 9.2 mph - N/A   Haze
3:00 PM 89.6 °F 87.7 °F 55.4 °F 31% 29.86 in 3.1 mi NW 9.2 mph - N/A   Haze
3:30 PM 89.6 °F 87.7 °F 55.4 °F 31% 29.86 in 3.1 mi WNW 9.2 mph - N/A   Haze
4:00 PM 87.8 °F 86.1 °F 55.4 °F 33% 29.86 in 3.1 mi WNW 10.4 mph - N/A   Haze
4:30 PM 87.8 °F 86.1 °F 55.4 °F 33% 29.86 in 3.1 mi NW 9.2 mph - N/A   Haze
5:00 PM 87.8 °F 86.1 °F 55.4 °F 33% 29.86 in 3.1 mi NW 8.1 mph - N/A   Haze
5:30 PM 86.0 °F 84.9 °F 57.2 °F 37% 29.86 in 3.1 mi NW 5.8 mph - N/A   Haze
6:00 PM 82.4 °F 82.5 °F 59.0 °F 45% 29.86 in 2.8 mi NNW 5.8 mph - N/A   Haze
6:30 PM 77.0 °F - 64.4 °F 65% 29.89 in - Calm Calm - N/A   Haze
8:00 PM 77.0 °F - 64.4 °F 65% 29.89 in 1.6 mi Calm Calm - N/A   Haze
8:30 PM 75.2 °F - 64.4 °F 69% 29.89 in 1.6 mi Calm Calm - N/A   Haze
9:00 PM 73.4 °F - 64.4 °F 73% 29.89 in 1.6 mi Calm Calm - N/A   Haze
9:30 PM 73.4 °F - 64.4 °F 73% 29.89 in 1.1 mi Calm Calm - N/A   Haze
10:00 PM 73.4 °F - 66.2 °F 78% 29.92 in 1.1 mi Calm Calm - N/A   Mist
11:00 PM 71.6 °F - 66.2 °F 83% 29.92 in 1.1 mi Calm Calm - N/A   Mist
11:30 PM 71.6 °F - 66.2 °F 83% 29.92 in 1.1 mi Calm Calm - N/A   Mist